| time (UTC) | temp F | wind direction | speed MPH | gust MPH | rain 1hr in | rain 24hr in | rain mn in | humidity % | barometer mb |
| 20260903213943 | 93 | 189 | 6.0 | 12.0 | 0.00 | 0.00 | 0.00 | 55 | 1010.1 |
| 20260903213446 | 93 | 122 | 8.0 | 13.0 | 0.00 | 0.00 | 0.00 | 55 | 1010.2 |
| 20260903212933 | 93 | 112 | 8.0 | 14.0 | 0.00 | 0.00 | 0.00 | 55 | 1010.2 |
| 20260903212436 | 93 | 102 | 6.0 | 14.0 | 0.00 | 0.00 | 0.00 | 56 | 1010.3 |
| 20260903212009 | 93 | 106 | 9.0 | 13.0 | 0.00 | 0.00 | 0.00 | 56 | 1010.3 |
| 20260903211502 | 93 | 139 | 6.0 | 13.0 | 0.00 | 0.00 | 0.00 | 57 | 1010.4 |
| 20260903210928 | 92 | 121 | 5.0 | 13.0 | 0.00 | 0.00 | 0.00 | 57 | 1010.5 |
| 20260903210503 | 93 | 113 | 8.0 | 13.0 | 0.00 | 0.00 | 0.00 | 56 | 1010.6 |
| 20260903205932 | 93 | 124 | 10.0 | 18.0 | 0.00 | 0.00 | 0.00 | 57 | 1010.6 |
| 20260903205440 | 93 | 179 | 7.0 | 18.0 | 0.00 | 0.00 | 0.00 | 56 | 1010.6 |
| 20260903204932 | 94 | 183 | 6.0 | 12.0 | 0.00 | 0.00 | 0.00 | 56 | 1010.7 |
| 20260903204437 | 93 | 136 | 7.0 | 12.0 | 0.00 | 0.00 | 0.00 | 57 | 1010.7 |
| 20260903203943 | 94 | 195 | 7.0 | 11.0 | 0.00 | 0.00 | 0.00 | 57 | 1010.8 |
| 20260903203430 | 94 | 189 | 8.0 | 13.0 | 0.00 | 0.00 | 0.00 | 56 | 1010.9 |
| 20260903202930 | 93 | 134 | 6.0 | 15.0 | 0.00 | 0.00 | 0.00 | 58 | 1010.8 |
| 20260903202443 | 93 | 158 | 8.0 | 15.0 | 0.00 | 0.00 | 0.00 | 57 | 1010.9 |
| 20260903201929 | 93 | 158 | 6.0 | 13.0 | 0.00 | 0.00 | 0.00 | 57 | 1011.0 |
| 20260903201435 | 93 | 153 | 6.0 | 14.0 | 0.00 | 0.00 | 0.00 | 58 | 1011.1 |
| 20260903200938 | 93 | 140 | 8.0 | 16.0 | 0.00 | 0.00 | 0.00 | 58 | 1011.2 |
| 20260903200425 | 93 | 132 | 8.0 | 16.0 | 0.00 | 0.00 | 0.00 | 58 | 1011.1 |
| 20260903195933 | 93 | 206 | 7.0 | 14.0 | 0.00 | 0.00 | 0.00 | 58 | 1011.1 |
| 20260903195453 | 93 | 125 | 9.0 | 14.0 | 0.00 | 0.00 | 0.00 | 58 | 1011.1 |
| 20260903194935 | 93 | 148 | 7.0 | 13.0 | 0.00 | 0.00 | 0.00 | 58 | 1011.1 |
| 20260903194439 | 93 | 197 | 7.0 | 13.0 | 0.00 | 0.00 | 0.00 | 59 | 1011.1 |
| 20260903193929 | 93 | 139 | 8.0 | 14.0 | 0.00 | 0.00 | 0.00 | 59 | 1011.2 |
| 20260903193435 | 93 | 137 | 8.0 | 14.0 | 0.00 | 0.00 | 0.00 | 58 | 1011.3 |
| 20260903192944 | 93 | 115 | 9.0 | 14.0 | 0.00 | 0.00 | 0.00 | 58 | 1011.3 |
| 20260903192427 | 93 | 133 | 7.0 | 14.0 | 0.00 | 0.00 | 0.00 | 59 | 1011.3 |
| 20260903191934 | 93 | 158 | 10.0 | 14.0 | 0.00 | 0.00 | 0.00 | 58 | 1011.5 |
| 20260903191445 | 93 | 139 | 7.0 | 14.0 | 0.00 | 0.00 | 0.00 | 59 | 1011.5 |
| 20260903190929 | 92 | 127 | 7.0 | 16.0 | 0.00 | 0.00 | 0.00 | 60 | 1011.7 |
| 20260903190436 | 91 | 179 | 9.0 | 16.0 | 0.00 | 0.00 | 0.00 | 60 | 1011.8 |
| 20260903185943 | 91 | 177 | 9.0 | 16.0 | 0.00 | 0.00 | 0.00 | 60 | 1011.8 |
| 20260903185429 | 92 | 116 | 8.0 | 16.0 | 0.00 | 0.00 | 0.00 | 60 | 1012.0 |
| 20260903184935 | 91 | 164 | 7.0 | 16.0 | 0.00 | 0.00 | 0.00 | 62 | 1012.0 |
| 20260903184440 | 91 | 116 | 9.0 | 14.0 | 0.00 | 0.00 | 0.00 | 60 | 1012.0 |
| 20260903183939 | 92 | 153 | 10.0 | 13.0 | 0.00 | 0.00 | 0.00 | 60 | 1012.1 |
| 20260903183428 | 91 | 110 | 8.0 | 13.0 | 0.00 | 0.00 | 0.00 | 60 | 1012.1 |
| 20260903182942 | 92 | 162 | 8.0 | 13.0 | 0.00 | 0.00 | 0.00 | 60 | 1012.2 |
| 20260903182432 | 92 | 122 | 7.0 | 17.0 | 0.00 | 0.00 | 0.00 | 60 | 1012.2 |
| 20260903181939 | 92 | 122 | 10.0 | 17.0 | 0.00 | 0.00 | 0.00 | 60 | 1012.3 |
| 20260903181427 | 91 | 122 | 9.0 | 15.0 | 0.00 | 0.00 | 0.00 | 61 | 1012.3 |
| 20260903180939 | 90 | 207 | 4.0 | 13.0 | 0.00 | 0.00 | 0.00 | 61 | 1012.3 |
| 20260903180442 | 91 | 197 | 7.0 | 13.0 | 0.00 | 0.00 | 0.00 | 61 | 1012.5 |
| 20260903175929 | 91 | 183 | 5.0 | 13.0 | 0.00 | 0.00 | 0.00 | 62 | 1012.5 |
| 20260903175435 | 90 | 121 | 5.0 | 12.0 | 0.00 | 0.00 | 0.00 | 62 | 1012.5 |
| 20260903174940 | 90 | 158 | 5.0 | 14.0 | 0.00 | 0.00 | 0.00 | 63 | 1012.6 |
| 20260903174445 | 90 | 193 | 6.0 | 14.0 | 0.00 | 0.00 | 0.00 | 62 | 1012.6 |
| 20260903173933 | 90 | 153 | 8.0 | 13.0 | 0.00 | 0.00 | 0.00 | 63 | 1012.7 |
| 20260903173458 | 90 | 124 | 8.0 | 11.0 | 0.00 | 0.00 | 0.00 | 63 | 1012.7 |
| 20260903172957 | 90 | 183 | 4.0 | 10.0 | 0.00 | 0.00 | 0.00 | 64 | 1012.8 |
| 20260903172446 | 89 | 118 | 6.0 | 14.0 | 0.00 | 0.00 | 0.00 | 63 | 1012.9 |
| 20260903171932 | 90 | 203 | 8.0 | 14.0 | 0.00 | 0.00 | 0.00 | 63 | 1012.9 |
| 20260903171442 | 90 | 137 | 6.0 | 12.0 | 0.00 | 0.00 | 0.00 | 64 | 1013.1 |
| 20260903170926 | 89 | 165 | 9.0 | 11.0 | 0.00 | 0.00 | 0.00 | 64 | 1013.1 |
| 20260903170502 | 89 | 123 | 3.0 | 10.0 | 0.00 | 0.00 | 0.00 | 65 | 1013.1 |
| 20260903165943 | 89 | 168 | 6.0 | 13.0 | 0.00 | 0.00 | 0.00 | 65 | 1013.1 |
| 20260903165430 | 87 | 172 | 6.0 | 13.0 | 0.00 | 0.00 | 0.00 | 67 | 1013.2 |
| 20260903164938 | 87 | 175 | 6.0 | 14.0 | 0.00 | 0.00 | 0.00 | 66 | 1013.2 |
| 20260903164446 | 88 | 203 | 8.0 | 14.0 | 0.00 | 0.00 | 0.00 | 66 | 1013.2 |
| 20260903163933 | 88 | 167 | 4.0 | 13.0 | 0.00 | 0.00 | 0.00 | 66 | 1013.2 |
| 20260903163440 | 88 | 109 | 5.0 | 12.0 | 0.00 | 0.00 | 0.00 | 67 | 1013.2 |
| 20260903162947 | 87 | 177 | 8.0 | 12.0 | 0.00 | 0.00 | 0.00 | 67 | 1013.3 |
| 20260903162432 | 88 | 194 | 6.0 | 12.0 | 0.00 | 0.00 | 0.00 | 66 | 1013.3 |
| 20260903161934 | 87 | 148 | 4.0 | 10.0 | 0.00 | 0.00 | 0.00 | 68 | 1013.2 |
| 20260903161441 | 86 | 137 | 6.0 | 12.0 | 0.00 | 0.00 | 0.00 | 70 | 1013.3 |
| 20260903160947 | 86 | 117 | 8.0 | 13.0 | 0.00 | 0.00 | 0.00 | 69 | 1013.3 |
| 20260903160435 | 86 | 178 | 6.0 | 13.0 | 0.00 | 0.00 | 0.00 | 68 | 1013.3 |
| 20260903155938 | 86 | 153 | 7.0 | 10.0 | 0.00 | 0.00 | 0.00 | 68 | 1013.3 |
| 20260903155503 | 86 | 120 | 3.0 | 11.0 | 0.00 | 0.00 | 0.00 | 68 | 1013.2 |
| 20260903154929 | 86 | 175 | 5.0 | 12.0 | 0.00 | 0.00 | 0.00 | 69 | 1013.3 |
| 20260903154429 | 86 | 153 | 9.0 | 12.0 | 0.00 | 0.00 | 0.00 | 69 | 1013.3 |
| 20260903153933 | 86 | 137 | 6.0 | 12.0 | 0.00 | 0.00 | 0.00 | 69 | 1013.2 |
| 20260903153510 | 85 | 167 | 7.0 | 12.0 | 0.00 | 0.00 | 0.00 | 71 | 1013.1 |
| 20260903152956 | 84 | 121 | 6.0 | 11.0 | 0.00 | 0.00 | 0.00 | 73 | 1013.1 |
| 20260903152441 | 83 | 164 | 6.0 | 11.0 | 0.00 | 0.00 | 0.00 | 72 | 1013.1 |
| 20260903151928 | 83 | 124 | 4.0 | 9.0 | 0.00 | 0.00 | 0.00 | 72 | 1013.1 |
| 20260903151428 | 83 | 153 | 4.0 | 9.0 | 0.00 | 0.00 | 0.00 | 72 | 1013.1 |
| 20260903150937 | 83 | 136 | 4.0 | 11.0 | 0.00 | 0.00 | 0.00 | 72 | 1013.2 |
| 20260903150442 | 83 | 126 | 6.0 | 11.0 | 0.00 | 0.00 | 0.00 | 72 | 1013.1 |
| 20260903145934 | 83 | 158 | 6.0 | 10.0 | 0.00 | 0.00 | 0.00 | 73 | 1013.3 |
| 20260903145442 | 82 | 158 | 6.0 | 10.0 | 0.00 | 0.00 | 0.00 | 74 | 1013.3 |
| 20260903144930 | 82 | 117 | 5.0 | 10.0 | 0.00 | 0.00 | 0.00 | 74 | 1013.5 |
| 20260903144446 | 82 | 118 | 6.0 | 12.0 | 0.00 | 0.00 | 0.00 | 74 | 1013.5 |
| 20260903143932 | 81 | 132 | 6.0 | 12.0 | 0.00 | 0.00 | 0.00 | 75 | 1013.5 |
| 20260903143430 | 81 | 124 | 7.0 | 10.0 | 0.00 | 0.00 | 0.00 | 76 | 1013.4 |
| 20260903142939 | 80 | 120 | 6.0 | 10.0 | 0.00 | 0.00 | 0.00 | 76 | 1013.4 |
| 20260903142425 | 80 | 144 | 6.0 | 10.0 | 0.00 | 0.00 | 0.00 | 77 | 1013.4 |
| 20260903141936 | 80 | 114 | 4.0 | 11.0 | 0.00 | 0.00 | 0.00 | 77 | 1013.3 |
| 20260903141440 | 80 | 118 | 4.0 | 11.0 | 0.00 | 0.00 | 0.00 | 77 | 1013.3 |
| 20260903140929 | 79 | 122 | 4.0 | 7.0 | 0.00 | 0.00 | 0.00 | 78 | 1013.2 |
| 20260903140504 | 79 | 128 | 2.0 | 9.0 | 0.00 | 0.00 | 0.00 | 78 | 1013.3 |
| 20260903135947 | 79 | 116 | 5.0 | 9.0 | 0.00 | 0.00 | 0.00 | 78 | 1013.3 |
| 20260903135431 | 79 | 119 | 3.0 | 9.0 | 0.00 | 0.00 | 0.00 | 78 | 1013.2 |
| 20260903134941 | 79 | 114 | 6.0 | 9.0 | 0.00 | 0.00 | 0.00 | 78 | 1013.2 |
| 20260903134427 | 78 | 118 | 4.0 | 7.0 | 0.00 | 0.00 | 0.00 | 78 | 1013.1 |
| 20260903133941 | 78 | 110 | 4.0 | 8.0 | 0.00 | 0.00 | 0.00 | 78 | 1013.2 |
| 20260903133453 | 78 | 109 | 6.0 | 8.0 | 0.00 | 0.00 | 0.00 | 78 | 1013.2 |
| 20260903133001 | 78 | 110 | 5.0 | 8.0 | 0.00 | 0.00 | 0.00 | 78 | 1013.2 |
| 20260903132511 | 78 | 104 | 4.0 | 7.0 | 0.00 | 0.00 | 0.00 | 78 | 1013.1 |
| 20260903131955 | 78 | 114 | 4.0 | 6.0 | 0.00 | 0.00 | 0.00 | 77 | 1013.1 |
| 20260903131442 | 78 | 118 | 4.0 | 6.0 | 0.00 | 0.00 | 0.00 | 77 | 1013.0 |
| 20260903130946 | 78 | 118 | 4.0 | 6.0 | 0.00 | 0.00 | 0.00 | 77 | 1013.1 |
| 20260903130431 | 78 | 124 | 2.0 | 6.0 | 0.00 | 0.00 | 0.00 | 77 | 1013.1 |
| 20260903125932 | 78 | 125 | 3.0 | 6.0 | 0.00 | 0.00 | 0.00 | 77 | 1013.1 |
| 20260903125435 | 78 | 124 | 2.0 | 6.0 | 0.00 | 0.00 | 0.00 | 76 | 1013.1 |
| 20260903124943 | 78 | 126 | 4.0 | 6.0 | 0.00 | 0.00 | 0.00 | 76 | 1013.1 |
| 20260903124430 | 78 | 124 | 3.0 | 8.0 | 0.00 | 0.00 | 0.00 | 76 | 1013.1 |
| 20260903123940 | 78 | 118 | 4.0 | 8.0 | 0.00 | 0.00 | 0.00 | 76 | 1013.0 |
| 20260903123450 | 78 | 122 | 3.0 | 5.0 | 0.00 | 0.00 | 0.00 | 76 | 1012.9 |
| 20260903122958 | 78 | 122 | 2.0 | 4.0 | 0.00 | 0.00 | 0.00 | 76 | 1012.8 |
| 20260903122447 | 78 | 122 | 3.0 | 4.0 | 0.00 | 0.00 | 0.00 | 76 | 1012.8 |
| 20260903121929 | 78 | 122 | 2.0 | 6.0 | 0.00 | 0.00 | 0.00 | 76 | 1012.8 |
| 20260903121436 | 78 | 122 | 1.0 | 6.0 | 0.00 | 0.00 | 0.00 | 76 | 1012.7 |
| 20260903120954 | 78 | 120 | 4.0 | 6.0 | 0.00 | 0.00 | 0.00 | 76 | 1012.7 |
| 20260903120459 | 78 | 118 | 4.0 | 6.0 | 0.00 | 0.00 | 0.00 | 76 | 1012.7 |
| 20260903115933 | 78 | 124 | 2.0 | 6.0 | 0.00 | 0.00 | 0.00 | 76 | 1012.8 |
| 20260903115441 | 78 | 124 | 4.0 | 6.0 | 0.00 | 0.00 | 0.00 | 76 | 1012.7 |
| 20260903114929 | 78 | 122 | 3.0 | 5.0 | 0.00 | 0.00 | 0.00 | 76 | 1012.8 |
| 20260903114502 | 78 | 122 | 3.0 | 6.0 | 0.00 | 0.00 | 0.00 | 76 | 1012.8 |
| 20260903113929 | 78 | 120 | 3.0 | 7.0 | 0.00 | 0.00 | 0.00 | 76 | 1012.8 |
| 20260903113438 | 78 | 117 | 4.0 | 7.0 | 0.00 | 0.00 | 0.00 | 76 | 1012.7 |
| 20260903112942 | 78 | 121 | 3.0 | 7.0 | 0.00 | 0.00 | 0.00 | 76 | 1012.7 |
| 20260903112446 | 78 | 122 | 3.0 | 7.0 | 0.00 | 0.00 | 0.00 | 76 | 1012.8 |
| 20260903111953 | 78 | 118 | 4.0 | 6.0 | 0.00 | 0.00 | 0.00 | 76 | 1012.7 |
| 20260903111432 | 78 | 120 | 2.0 | 6.0 | 0.00 | 0.00 | 0.00 | 76 | 1012.6 |
| 20260903110942 | 78 | 119 | 4.0 | 6.0 | 0.00 | 0.00 | 0.00 | 76 | 1012.6 |
| 20260903110451 | 78 | 118 | 5.0 | 7.0 | 0.00 | 0.00 | 0.00 | 76 | 1012.6 |
| 20260903105939 | 78 | 114 | 5.0 | 7.0 | 0.00 | 0.00 | 0.00 | 76 | 1012.6 |
| 20260903105433 | 78 | 110 | 3.0 | 6.0 | 0.00 | 0.00 | 0.00 | 77 | 1012.5 |
| 20260903104942 | 78 | 111 | 2.0 | 6.0 | 0.00 | 0.00 | 0.00 | 77 | 1012.4 |
| 20260903104428 | 78 | 110 | 3.0 | 6.0 | 0.00 | 0.00 | 0.00 | 77 | 1012.5 |
| 20260903103934 | 78 | 107 | 2.0 | 3.0 | 0.00 | 0.00 | 0.00 | 77 | 1012.4 |
| 20260903103439 | 78 | 107 | 2.0 | 4.0 | 0.00 | 0.00 | 0.00 | 77 | 1012.4 |
| 20260903102926 | 78 | 107 | 0.0 | 4.0 | 0.00 | 0.00 | 0.00 | 77 | 1012.4 |
| 20260903102439 | 78 | 107 | 2.0 | 2.0 | 0.00 | 0.00 | 0.00 | 77 | 1012.3 |
| 20260903101952 | 78 | 107 | 1.0 | 3.0 | 0.00 | 0.00 | 0.00 | 76 | 1012.3 |
| 20260903101457 | 78 | 107 | 0.0 | 4.0 | 0.00 | 0.00 | 0.00 | 76 | 1012.5 |
| 20260903100943 | 78 | 107 | 2.0 | 6.0 | 0.00 | 0.00 | 0.00 | 76 | 1012.5 |
| 20260903100431 | 78 | 107 | 3.0 | 6.0 | 0.00 | 0.00 | 0.00 | 76 | 1012.4 |
| 20260903095935 | 78 | 106 | 3.0 | 6.0 | 0.00 | 0.00 | 0.00 | 76 | 1012.5 |
| 20260903095439 | 78 | 104 | 4.0 | 6.0 | 0.00 | 0.00 | 0.00 | 76 | 1012.4 |
| 20260903094930 | 78 | 106 | 5.0 | 6.0 | 0.00 | 0.00 | 0.00 | 76 | 1012.4 |
| 20260903094435 | 78 | 110 | 4.0 | 6.0 | 0.00 | 0.00 | 0.00 | 76 | 1012.3 |
| 20260903093937 | 79 | 114 | 4.0 | 7.0 | 0.00 | 0.00 | 0.00 | 75 | 1012.3 |
| 20260903093428 | 79 | 114 | 5.0 | 7.0 | 0.00 | 0.00 | 0.00 | 75 | 1012.4 |
| 20260903093001 | 79 | 120 | 3.0 | 6.0 | 0.00 | 0.00 | 0.00 | 75 | 1012.4 |
| 20260903092428 | 79 | 124 | 3.0 | 6.0 | 0.00 | 0.00 | 0.00 | 74 | 1012.3 |
| 20260903091929 | 79 | 124 | 3.0 | 6.0 | 0.00 | 0.00 | 0.00 | 74 | 1012.4 |
| 20260903091435 | 79 | 122 | 2.0 | 5.0 | 0.00 | 0.00 | 0.00 | 74 | 1012.4 |
| 20260903090942 | 79 | 123 | 3.0 | 5.0 | 0.00 | 0.00 | 0.00 | 74 | 1012.5 |
| 20260903090429 | 79 | 122 | 2.0 | 5.0 | 0.00 | 0.00 | 0.00 | 74 | 1012.5 |
| 20260903085933 | 79 | 122 | 3.0 | 6.0 | 0.00 | 0.00 | 0.00 | 74 | 1012.5 |
| 20260903085426 | 79 | 119 | 4.0 | 6.0 | 0.00 | 0.00 | 0.00 | 74 | 1012.6 |
| 20260903084932 | 79 | 117 | 2.0 | 5.0 | 0.00 | 0.00 | 0.00 | 74 | 1012.5 |
| 20260903084438 | 79 | 116 | 3.0 | 5.0 | 0.00 | 0.00 | 0.00 | 74 | 1012.4 |
| 20260903083942 | 79 | 112 | 3.0 | 5.0 | 0.00 | 0.00 | 0.00 | 74 | 1012.5 |
| 20260903083429 | 79 | 113 | 3.0 | 4.0 | 0.00 | 0.00 | 0.00 | 74 | 1012.4 |
| 20260903082937 | 79 | 113 | 3.0 | 4.0 | 0.00 | 0.00 | 0.00 | 74 | 1012.5 |
| 20260903082513 | 79 | 110 | 3.0 | 4.0 | 0.00 | 0.00 | 0.00 | 74 | 1012.4 |
| 20260903081929 | 79 | 110 | 2.0 | 4.0 | 0.00 | 0.00 | 0.00 | 74 | 1012.5 |
| 20260903081502 | 79 | 110 | 3.0 | 5.0 | 0.00 | 0.00 | 0.00 | 74 | 1012.5 |
| 20260903080930 | 79 | 108 | 3.0 | 6.0 | 0.00 | 0.00 | 0.00 | 74 | 1012.5 |
| 20260903080439 | 79 | 108 | 4.0 | 6.0 | 0.00 | 0.00 | 0.00 | 74 | 1012.4 |
| 20260903075926 | 80 | 108 | 5.0 | 6.0 | 0.00 | 0.00 | 0.00 | 74 | 1012.5 |
| 20260903075433 | 80 | 109 | 3.0 | 5.0 | 0.00 | 0.00 | 0.00 | 73 | 1012.5 |
| 20260903074944 | 80 | 110 | 3.0 | 5.0 | 0.00 | 0.00 | 0.00 | 73 | 1012.5 |
| 20260903074429 | 80 | 110 | 3.0 | 6.0 | 0.00 | 0.00 | 0.00 | 73 | 1012.5 |
| 20260903073933 | 80 | 109 | 4.0 | 6.0 | 0.00 | 0.00 | 0.00 | 73 | 1012.5 |
| 20260903073506 | 80 | 108 | 4.0 | 6.0 | 0.00 | 0.00 | 0.00 | 73 | 1012.4 |
| 20260903072949 | 80 | 109 | 3.0 | 4.0 | 0.00 | 0.00 | 0.00 | 73 | 1012.4 |
| 20260903072441 | 80 | 109 | 2.0 | 3.0 | 0.00 | 0.00 | 0.00 | 73 | 1012.4 |
| 20260903071933 | 80 | 110 | 2.0 | 4.0 | 0.00 | 0.00 | 0.00 | 72 | 1012.3 |
| 20260903071441 | 80 | 110 | 2.0 | 5.0 | 0.00 | 0.00 | 0.00 | 72 | 1012.3 |
| 20260903070931 | 80 | 110 | 3.0 | 5.0 | 0.00 | 0.00 | 0.00 | 72 | 1012.5 |
| 20260903070453 | 80 | 110 | 4.0 | 6.0 | 0.00 | 0.00 | 0.00 | 71 | 1012.5 |
| 20260903070008 | 80 | 110 | 3.0 | 6.0 | 0.00 | 0.00 | 0.00 | 71 | 1012.6 |
| 20260903065452 | 81 | 112 | 2.0 | 10.0 | 0.00 | 0.00 | 0.00 | 71 | 1012.6 |
| 20260903064935 | 81 | 110 | 4.0 | 10.0 | 0.00 | 0.00 | 0.00 | 70 | 1012.6 |
| 20260903064435 | 81 | 113 | 5.0 | 9.0 | 0.00 | 0.00 | 0.00 | 70 | 1012.8 |
| 20260903063943 | 81 | 113 | 5.0 | 7.0 | 0.00 | 0.00 | 0.00 | 69 | 1012.8 |
| 20260903063444 | 81 | 113 | 4.0 | 9.0 | 0.00 | 0.00 | 0.00 | 69 | 1012.8 |
| 20260903062949 | 82 | 106 | 4.0 | 10.0 | 0.00 | 0.00 | 0.00 | 68 | 1012.8 |
| 20260903062435 | 82 | 114 | 5.0 | 10.0 | 0.00 | 0.00 | 0.00 | 68 | 1012.9 |
| 20260903061939 | 82 | 114 | 5.0 | 12.0 | 0.00 | 0.00 | 0.00 | 67 | 1012.9 |
| 20260903061431 | 82 | 117 | 5.0 | 12.0 | 0.00 | 0.00 | 0.00 | 67 | 1013.0 |
| 20260903060938 | 82 | 112 | 6.0 | 12.0 | 0.00 | 0.00 | 0.00 | 66 | 1013.0 |
| 20260903060444 | 82 | 112 | 6.0 | 14.0 | 0.00 | 0.00 | 0.00 | 66 | 1013.0 |
| 20260903055945 | 83 | 122 | 5.0 | 14.0 | 0.00 | 0.00 | 0.00 | 66 | 1013.0 |
| 20260903055445 | 83 | 118 | 5.0 | 15.0 | 0.00 | 0.00 | 0.00 | 65 | 1013.2 |
| 20260903054929 | 83 | 92 | 7.0 | 15.0 | 0.00 | 0.00 | 0.00 | 65 | 1013.0 |
| 20260903054438 | 83 | 112 | 7.0 | 14.0 | 0.00 | 0.00 | 0.00 | 65 | 1013.0 |
| 20260903053942 | 83 | 118 | 7.0 | 13.0 | 0.00 | 0.00 | 0.00 | 65 | 1013.0 |
| 20260903053432 | 83 | 95 | 8.0 | 10.0 | 0.00 | 0.00 | 0.00 | 64 | 1013.0 |
| 20260903052936 | 83 | 116 | 4.0 | 10.0 | 0.00 | 0.00 | 0.00 | 64 | 1012.9 |
| 20260903052442 | 84 | 107 | 6.0 | 12.0 | 0.00 | 0.00 | 0.00 | 64 | 1012.9 |
| 20260903051930 | 84 | 99 | 9.0 | 12.0 | 0.00 | 0.00 | 0.00 | 63 | 1012.9 |
| 20260903051435 | 84 | 110 | 6.0 | 11.0 | 0.00 | 0.00 | 0.00 | 63 | 1012.9 |
| 20260903050936 | 84 | 114 | 5.0 | 12.0 | 0.00 | 0.00 | 0.00 | 62 | 1012.9 |
| 20260903050444 | 84 | 112 | 7.0 | 12.0 | 0.00 | 0.00 | 0.00 | 62 | 1012.9 |
| 20260903045927 | 84 | 96 | 6.0 | 11.0 | 0.00 | 0.00 | 0.00 | 62 | 1012.9 |
| 20260903045436 | 84 | 101 | 7.0 | 12.0 | 0.00 | 0.00 | 0.00 | 61 | 1012.9 |
| 20260903044940 | 85 | 122 | 7.0 | 13.0 | 0.00 | 0.00 | 0.00 | 61 | 1012.9 |
| 20260903044429 | 85 | 116 | 8.0 | 13.0 | 0.00 | 0.00 | 0.00 | 60 | 1012.9 |
| 20260903043934 | 85 | 123 | 4.0 | 11.0 | 0.00 | 0.00 | 0.00 | 60 | 1012.9 |
| 20260903043449 | 85 | 109 | 7.0 | 16.0 | 0.00 | 0.00 | 0.00 | 59 | 1012.9 |
| 20260903042932 | 85 | 95 | 9.0 | 16.0 | 0.00 | 0.00 | 0.00 | 59 | 1012.9 |
| 20260903042440 | 85 | 123 | 5.0 | 15.0 | 0.00 | 0.00 | 0.00 | 59 | 1012.9 |
| 20260903041930 | 86 | 122 | 8.0 | 15.0 | 0.00 | 0.00 | 0.00 | 58 | 1012.8 |
| 20260903041433 | 86 | 107 | 9.0 | 15.0 | 0.00 | 0.00 | 0.00 | 58 | 1013.0 |
| 20260903040939 | 86 | 87 | 9.0 | 14.0 | 0.00 | 0.00 | 0.00 | 58 | 1013.0 |
| 20260903040441 | 86 | 106 | 7.0 | 11.0 | 0.00 | 0.00 | 0.00 | 57 | 1013.0 |
| 20260903035931 | 87 | 114 | 6.0 | 10.0 | 0.00 | 0.00 | 0.00 | 57 | 1013.0 |
| 20260903035500 | 87 | 119 | 4.0 | 14.0 | 0.00 | 0.00 | 0.00 | 57 | 1012.9 |
| 20260903034928 | 87 | 114 | 8.0 | 16.0 | 0.00 | 0.00 | 0.00 | 56 | 1012.9 |
| 20260903034449 | 87 | 110 | 9.0 | 16.0 | 0.00 | 0.00 | 0.00 | 57 | 1012.9 |
| 20260903033938 | 88 | 116 | 7.0 | 13.0 | 0.00 | 0.00 | 0.00 | 56 | 1012.8 |
| 20260903033427 | 88 | 120 | 6.0 | 11.0 | 0.00 | 0.00 | 0.00 | 56 | 1012.8 |
| 20260903032936 | 88 | 129 | 7.0 | 12.0 | 0.00 | 0.00 | 0.00 | 55 | 1012.8 |
| 20260903032445 | 88 | 116 | 8.0 | 12.0 | 0.00 | 0.00 | 0.00 | 54 | 1012.9 |
| 20260903031951 | 89 | 107 | 8.0 | 13.0 | 0.00 | 0.00 | 0.00 | 54 | 1012.8 |
| 20260903031438 | 89 | 123 | 6.0 | 15.0 | 0.00 | 0.00 | 0.00 | 53 | 1012.8 |
| 20260903030945 | 89 | 148 | 5.0 | 15.0 | 0.00 | 0.00 | 0.00 | 52 | 1012.7 |
| 20260903030450 | 90 | 125 | 5.0 | 12.0 | 0.00 | 0.00 | 0.00 | 51 | 1012.7 |
| 20260903025954 | 90 | 128 | 5.0 | 16.0 | 0.00 | 0.00 | 0.00 | 51 | 1012.5 |
| 20260903025443 | 90 | 120 | 7.0 | 16.0 | 0.00 | 0.00 | 0.00 | 50 | 1012.5 |
| 20260903024931 | 90 | 126 | 5.0 | 11.0 | 0.00 | 0.00 | 0.00 | 50 | 1012.4 |
| 20260903024442 | 91 | 118 | 6.0 | 12.0 | 0.00 | 0.00 | 0.00 | 49 | 1012.3 |
| 20260903023931 | 91 | 120 | 8.0 | 12.0 | 0.00 | 0.00 | 0.00 | 49 | 1012.1 |
| 20260903023439 | 91 | 112 | 7.0 | 12.0 | 0.00 | 0.00 | 0.00 | 49 | 1012.0 |
| 20260903022926 | 91 | 114 | 4.0 | 12.0 | 0.00 | 0.00 | 0.00 | 48 | 1012.0 |
| 20260903022436 | 91 | 126 | 5.0 | 13.0 | 0.00 | 0.00 | 0.00 | 48 | 1012.0 |
| 20260903021942 | 92 | 124 | 7.0 | 13.0 | 0.00 | 0.00 | 0.00 | 48 | 1011.9 |
| 20260903021447 | 92 | 99 | 9.0 | 15.0 | 0.00 | 0.00 | 0.00 | 48 | 1011.8 |
| 20260903020951 | 92 | 106 | 10.0 | 17.0 | 0.00 | 0.00 | 0.00 | 48 | 1011.7 |
| 20260903020432 | 92 | 107 | 13.0 | 17.0 | 0.00 | 0.00 | 0.00 | 48 | 1011.6 |
| 20260903015941 | 92 | 106 | 10.0 | 18.0 | 0.00 | 0.00 | 0.00 | 49 | 1011.5 |
| 20260903015447 | 92 | 96 | 13.0 | 18.0 | 0.00 | 0.00 | 0.00 | 49 | 1011.5 |
| 20260903014932 | 92 | 119 | 10.0 | 14.0 | 0.00 | 0.00 | 0.00 | 49 | 1011.4 |
| 20260903014504 | 92 | 106 | 11.0 | 14.0 | 0.00 | 0.00 | 0.00 | 49 | 1011.5 |
| 20260903013932 | 92 | 95 | 8.0 | 12.0 | 0.00 | 0.00 | 0.00 | 49 | 1011.5 |
| 20260903013439 | 92 | 107 | 7.0 | 12.0 | 0.00 | 0.00 | 0.00 | 49 | 1011.4 |
| 20260903012944 | 92 | 120 | 6.0 | 13.0 | 0.00 | 0.00 | 0.00 | 49 | 1011.4 |
| 20260903012429 | 92 | 124 | 9.0 | 13.0 | 0.00 | 0.00 | 0.00 | 48 | 1011.3 |
| 20260903011927 | 93 | 105 | 7.0 | 14.0 | 0.00 | 0.00 | 0.00 | 48 | 1011.3 |
| 20260903011436 | 93 | 100 | 9.0 | 14.0 | 0.00 | 0.00 | 0.00 | 48 | 1011.2 |
| 20260903010927 | 93 | 111 | 7.0 | 13.0 | 0.00 | 0.00 | 0.00 | 48 | 1011.2 |
| 20260903010439 | 93 | 91 | 10.0 | 13.0 | 0.00 | 0.00 | 0.00 | 47 | 1011.1 |
| 20260903005930 | 93 | 110 | 6.0 | 13.0 | 0.00 | 0.00 | 0.00 | 47 | 1011.1 |
| 20260903005434 | 93 | 98 | 8.0 | 15.0 | 0.00 | 0.00 | 0.00 | 46 | 1011.1 |
| 20260903004938 | 94 | 98 | 8.0 | 15.0 | 0.00 | 0.00 | 0.00 | 46 | 1011.1 |
| 20260903004425 | 94 | 94 | 9.0 | 19.0 | 0.00 | 0.00 | 0.00 | 45 | 1011.1 |
| 20260903003948 | 94 | 92 | 10.0 | 21.0 | 0.00 | 0.00 | 0.00 | 45 | 1011.1 |
| 20260903003433 | 94 | 91 | 13.0 | 21.0 | 0.00 | 0.00 | 0.00 | 45 | 1011.1 |
| 20260903002942 | 95 | 104 | 13.0 | 20.0 | 0.00 | 0.00 | 0.00 | 45 | 1010.9 |
| 20260903002449 | 96 | 119 | 14.0 | 19.0 | 0.00 | 0.00 | 0.00 | 44 | 1010.9 |
| 20260903001934 | 97 | 63 | 11.0 | 16.0 | 0.00 | 0.00 | 0.00 | 40 | 1010.9 |
| 20260903001436 | 97 | 85 | 10.0 | 14.0 | 0.00 | 0.00 | 0.00 | 39 | 1010.7 |
| 20260903000935 | 97 | 95 | 9.0 | 14.0 | 0.00 | 0.00 | 0.00 | 39 | 1010.8 |
| 20260903000441 | 97 | 118 | 7.0 | 13.0 | 0.00 | 0.00 | 0.00 | 39 | 1011.0 |
| 20260902235947 | 97 | 101 | 8.0 | 14.0 | 0.00 | 0.00 | 0.00 | 38 | 1010.9 |
| 20260902235433 | 98 | 83 | 9.0 | 16.0 | 0.00 | 0.00 | 0.00 | 38 | 1010.8 |
| 20260902234943 | 98 | 66 | 8.0 | 16.0 | 0.00 | 0.00 | 0.00 | 37 | 1010.8 |
| 20260902234447 | 98 | 78 | 8.0 | 12.0 | 0.00 | 0.00 | 0.00 | 38 | 1010.8 |
| 20260902233932 | 98 | 103 | 8.0 | 12.0 | 0.00 | 0.00 | 0.00 | 38 | 1010.9 |
| 20260902233440 | 98 | 85 | 5.0 | 13.0 | 0.00 | 0.00 | 0.00 | 38 | 1010.9 |
| 20260902232942 | 98 | 97 | 3.0 | 15.0 | 0.00 | 0.00 | 0.00 | 39 | 1010.9 |
| 20260902232449 | 98 | 87 | 5.0 | 12.0 | 0.00 | 0.00 | 0.00 | 39 | 1010.8 |
| 20260902231939 | 98 | 92 | 4.0 | 13.0 | 0.00 | 0.00 | 0.00 | 38 | 1010.8 |
| 20260902231429 | 98 | 104 | 9.0 | 13.0 | 0.00 | 0.00 | 0.00 | 38 | 1010.8 |
| 20260902230935 | 99 | 88 | 5.0 | 12.0 | 0.00 | 0.00 | 0.00 | 38 | 1010.8 |
| 20260902230444 | 99 | 74 | 4.0 | 14.0 | 0.00 | 0.00 | 0.00 | 39 | 1010.8 |
| 20260902225931 | 99 | 77 | 8.0 | 14.0 | 0.00 | 0.00 | 0.00 | 38 | 1010.8 |
| 20260902225458 | 99 | 51 | 5.0 | 11.0 | 0.00 | 0.00 | 0.00 | 38 | 1010.9 |
| 20260902224940 | 99 | 84 | 5.0 | 11.0 | 0.00 | 0.00 | 0.00 | 38 | 1010.9 |
| 20260902224444 | 99 | 123 | 5.0 | 12.0 | 0.00 | 0.00 | 0.00 | 38 | 1010.8 |
| 20260902223932 | 100 | 96 | 6.0 | 12.0 | 0.00 | 0.00 | 0.00 | 37 | 1011.0 |
| 20260902223435 | 100 | 89 | 7.0 | 12.0 | 0.00 | 0.00 | 0.00 | 38 | 1011.0 |
| 20260902222942 | 99 | 113 | 3.0 | 12.0 | 0.00 | 0.00 | 0.00 | 38 | 1011.0 |
| 20260902222427 | 99 | 35 | 7.0 | 12.0 | 0.00 | 0.00 | 0.00 | 37 | 1011.1 |
| 20260902221933 | 99 | 99 | 7.0 | 11.0 | 0.00 | 0.00 | 0.00 | 38 | 1011.1 |
| 20260902221441 | 99 | 79 | 6.0 | 12.0 | 0.00 | 0.00 | 0.00 | 39 | 1011.2 |
| 20260902220926 | 98 | 96 | 3.0 | 15.0 | 0.00 | 0.00 | 0.00 | 39 | 1011.2 |
| 20260902220435 | 99 | 99 | 10.0 | 15.0 | 0.00 | 0.00 | 0.00 | 39 | 1011.2 |
| 20260902220000 | 99 | 64 | 1.0 | 15.0 | 0.00 | 0.00 | 0.00 | 37 | 1011.3 |
| 20260902215429 | 100 | 79 | 9.0 | 15.0 | 0.00 | 0.00 | 0.00 | 37 | 1011.5 |
| 20260902214936 | 99 | 68 | 5.0 | 11.0 | 0.00 | 0.00 | 0.00 | 38 | 1011.4 |
| 20260902214431 | 99 | 68 | 8.0 | 15.0 | 0.00 | 0.00 | 0.00 | 38 | 1011.5 |